Weather History for KOJA - December, 2013

Change the Weather History Date:

Wednesday, December 25, 2013

  Actual Average (KJWG) Record (KJWG)
Temperature  
Mean Temperature 37 °F -  
Max Temperature 46 °F 43 °F 67 °F (1960)
Min Temperature 28 °F 23 °F -5 °F (1983)
Degree Days  
Heating Degree Days 28    
Moisture  
Dew Point 31 °F    
Average Humidity 88    
Maximum Humidity 100    
Minimum Humidity 61    
Precipitation  
Precipitation 0.44 in - - ()
Sea Level Pressure  
Sea Level Pressure 30.35 in    
Wind  
Wind Speed 4 mph (North)    
Max Wind Speed 13 mph    
Max Gust Speed 18 mph    
Visibility 6 miles    
Events Fog , Snow    
Averages and records for this station are not official NWS values.
T = Trace of Precipitation, MM = Missing Value Source: NWS Daily Summary

Daily Weather History Graph

Daily Weather History Graph

Search for Another Location

Airport or City:

Trip Planner

Search our weather history database for the weather conditions in past years. The results will help you decide how hot, cold, wet, or windy it might be!

Date:

Astronomy

Dec. 25, 2013 Rise Set
Actual Time 7:42 AM CST 5:27 PM CST
Civil Twilight 7:13 AM CST 5:56 PM CST
Nautical Twilight 6:41 AM CST 6:28 PM CST
Astronomical Twilight 6:10 AM CST 6:59 PM CST
Moon 12:22 AM CST (12/25) 12:22 PM CST (12/25)
Length of Visible Light 10h 42m
Length of Day
9h 45m
Waning Gibbous, 48% of the Moon is Illuminated
Dec 25
Waning Gibbous
Jan 1
New
Jan 7
First Quarter
Jan 15
Full
Jan 23
Last Quarter

Hourly Weather History & Observations

Time (CST) Temp. Windchill Dew Point Humidity Pressure Visibility Wind Dir Wind Speed Gust Speed Precip Events Conditions
12:15 AM 32.0 °F - 32.0 °F 100% 30.24 in 0.2 mi Calm Calm - N/A Fog Fog
12:35 AM 32.0 °F 28.7 °F 32.0 °F 100% 30.24 in 0.2 mi NNE 3.5 mph - N/A Fog Fog
12:55 AM 32.0 °F 28.7 °F 32.0 °F 100% 30.25 in 0.2 mi North 3.5 mph - N/A Fog Fog
1:15 AM 32.0 °F 27.5 °F 32.0 °F 100% 30.25 in 0.2 mi North 4.6 mph - N/A Fog Light Freezing Fog
1:35 AM 32.0 °F 27.5 °F 32.0 °F 100% 30.25 in 0.2 mi North 4.6 mph - N/A Snow Light Snow
1:55 AM 32.0 °F 27.5 °F 32.0 °F 100% 30.25 in 0.2 mi North 4.6 mph - N/A Snow Light Snow
2:15 AM 30.2 °F 26.7 °F 30.2 °F 100% 30.25 in 0.2 mi NNE 3.5 mph - N/A Fog Light Freezing Fog
2:35 AM 30.2 °F 26.7 °F 30.2 °F 100% 30.26 in 0.5 mi NNE 3.5 mph - N/A Fog Light Freezing Fog
2:55 AM 30.2 °F - 30.2 °F 100% 30.27 in 0.2 mi Calm Calm - N/A Fog Light Freezing Fog
3:15 AM 30.2 °F 26.7 °F 30.2 °F 100% 30.26 in 0.5 mi NE 3.5 mph - N/A Fog Light Freezing Fog
3:35 AM 30.2 °F - 30.2 °F 100% 30.27 in 0.5 mi Calm Calm - N/A Fog Light Freezing Fog
3:55 AM 32.0 °F 28.7 °F 32.0 °F 100% 30.28 in 0.5 mi ENE 3.5 mph - N/A Fog Light Freezing Fog
4:15 AM 32.0 °F 28.7 °F 32.0 °F 100% 30.28 in 1.0 mi NNE 3.5 mph - N/A   Overcast
4:35 AM 32.0 °F 27.5 °F 32.0 °F 100% 30.28 in 1.0 mi NNE 4.6 mph - N/A   Overcast
4:55 AM 32.0 °F 28.7 °F 32.0 °F 100% 30.28 in 1.0 mi NNE 3.5 mph - N/A   Overcast
5:15 AM 32.0 °F 28.7 °F 32.0 °F 100% 30.28 in 0.8 mi North 3.5 mph - N/A   Overcast
5:35 AM 32.0 °F 27.5 °F 32.0 °F 100% 30.29 in 1.0 mi North 4.6 mph - N/A   Overcast
5:55 AM 32.0 °F 27.5 °F 32.0 °F 100% 30.30 in 0.5 mi North 4.6 mph - N/A Fog Light Freezing Fog
6:15 AM 32.0 °F 27.5 °F 32.0 °F 100% 30.30 in 1.0 mi North 4.6 mph - N/A   Overcast
6:35 AM 30.2 °F 26.7 °F 30.2 °F 100% 30.31 in 1.0 mi North 3.5 mph - N/A   Overcast
6:55 AM 30.2 °F 25.4 °F 30.2 °F 100% 30.32 in 0.8 mi North 4.6 mph - N/A   Overcast
7:15 AM 30.2 °F 25.4 °F 30.2 °F 100% 30.33 in 0.5 mi North 4.6 mph - N/A Fog Light Freezing Fog
7:35 AM 28.4 °F 24.6 °F 28.4 °F 100% 30.34 in 2.0 mi North 3.5 mph - N/A   Overcast
7:55 AM 28.4 °F - 28.4 °F 100% 30.35 in 4.0 mi Calm Calm - N/A   Scattered Clouds
8:15 AM 28.4 °F - 28.4 °F 100% 30.36 in 4.0 mi Calm Calm - N/A   Scattered Clouds
8:35 AM 28.4 °F 24.6 °F 28.4 °F 100% 30.36 in 4.0 mi NNW 3.5 mph - N/A   Scattered Clouds
8:55 AM 30.2 °F 26.7 °F 30.2 °F 100% 30.37 in 4.0 mi North 3.5 mph - N/A   Clear
9:15 AM 32.0 °F 27.5 °F 32.0 °F 100% 30.38 in 5.0 mi North 4.6 mph - N/A   Clear
9:35 AM 32.0 °F 27.5 °F 32.0 °F 100% 30.38 in 5.0 mi North 4.6 mph - N/A   Clear
9:55 AM 32.0 °F 27.5 °F 32.0 °F 100% 30.40 in 10.0 mi North 4.6 mph - N/A   Clear
10:15 AM 33.8 °F 29.6 °F 32.0 °F 93% 30.41 in 10.0 mi North 4.6 mph - N/A   Clear
10:35 AM 33.8 °F 28.6 °F 32.0 °F 93% 30.41 in 10.0 mi North 5.8 mph - 0.02 in   Clear
10:55 AM 33.8 °F 29.6 °F 32.0 °F 93% 30.42 in 10.0 mi North 4.6 mph - 0.06 in   Clear
11:15 AM 35.6 °F 31.7 °F 32.0 °F 87% 30.41 in 10.0 mi North 4.6 mph - 0.04 in   Clear
11:35 AM 35.6 °F 30.7 °F 32.0 °F 87% 30.41 in 10.0 mi North 5.8 mph - 0.08 in   Clear
11:55 AM 35.6 °F 27.5 °F 32.0 °F 87% 30.41 in 10.0 mi North 11.5 mph 18.4 mph 0.12 in   Clear
12:15 PM 37.4 °F 29.3 °F 32.0 °F 81% 30.40 in 10.0 mi North 12.7 mph 17.3 mph 0.04 in   Clear
12:35 PM 37.4 °F 29.8 °F 33.8 °F 87% 30.39 in 10.0 mi North 11.5 mph - 0.08 in   Clear
12:55 PM 39.2 °F 31.6 °F 33.8 °F 81% 30.39 in 10.0 mi North 12.7 mph 17.3 mph 0.13 in   Clear
1:15 PM 41.0 °F 33.9 °F 35.6 °F 81% 30.38 in 10.0 mi North 12.7 mph - 0.03 in   Clear
1:35 PM 42.8 °F 37.0 °F 35.6 °F 76% 30.38 in 10.0 mi North 10.4 mph - 0.07 in   Clear
1:55 PM 42.8 °F 36.6 °F 35.6 °F 76% 30.37 in 10.0 mi North 11.5 mph - 0.10 in   Clear
2:15 PM 44.6 °F 39.2 °F 35.6 °F 71% 30.36 in 10.0 mi NNW 10.4 mph - 0.02 in   Clear
2:35 PM 44.6 °F 39.7 °F 35.6 °F 71% 30.36 in 10.0 mi NNW 9.2 mph - 0.03 in   Clear
2:55 PM 44.6 °F 38.4 °F 33.8 °F 66% 30.36 in 10.0 mi North 12.7 mph - 0.03 in   Clear
3:15 PM 44.6 °F 39.7 °F 33.8 °F 66% 30.36 in 10.0 mi North 9.2 mph - N/A   Clear
3:35 PM 46.4 °F 43.5 °F 33.8 °F 62% 30.36 in 10.0 mi North 5.8 mph - N/A   Clear
3:55 PM 44.6 °F 41.4 °F 32.0 °F 61% 30.36 in 10.0 mi North 5.8 mph - N/A   Clear
4:15 PM 44.6 °F 40.7 °F 33.8 °F 66% 30.37 in 10.0 mi NNW 6.9 mph - N/A   Clear
4:35 PM 44.6 °F 42.2 °F 32.0 °F 61% 30.37 in 10.0 mi North 4.6 mph - N/A   Clear
4:55 PM 44.6 °F 43.1 °F 33.8 °F 66% 30.38 in 10.0 mi NNW 3.5 mph - N/A   Clear
5:15 PM 42.8 °F 41.1 °F 32.0 °F 66% 30.38 in 10.0 mi NNW 3.5 mph - N/A   Clear
5:35 PM 42.8 °F - 32.0 °F 66% 30.38 in 10.0 mi Calm Calm - N/A   Clear
5:55 PM 41.0 °F 37.1 °F 32.0 °F 70% 30.38 in 10.0 mi NW 5.8 mph - N/A   Clear
6:15 PM 39.2 °F - 32.0 °F 75% 30.39 in 10.0 mi Calm Calm - N/A   Clear
6:35 PM 37.4 °F - 32.0 °F 81% 30.40 in 10.0 mi Calm Calm - N/A   Clear
6:55 PM 35.6 °F - 32.0 °F 87% 30.40 in 10.0 mi Calm Calm - N/A   Clear
7:15 PM 33.8 °F 30.8 °F 30.2 °F 87% 30.40 in 10.0 mi West 3.5 mph - N/A   Clear
7:35 PM 32.0 °F 28.7 °F 30.2 °F 93% 30.40 in 10.0 mi West 3.5 mph - N/A   Clear
7:55 PM 32.0 °F 27.5 °F 30.2 °F 93% 30.41 in 10.0 mi NW 4.6 mph - N/A   Clear
8:15 PM 35.6 °F - 30.2 °F 81% 30.41 in 10.0 mi Calm Calm - N/A   Clear
8:35 PM 32.0 °F - 28.4 °F 87% 30.41 in 10.0 mi Calm Calm - N/A   Clear
8:55 PM 32.0 °F - 28.4 °F 87% 30.41 in 10.0 mi Calm Calm - N/A   Clear
9:15 PM 32.0 °F - 28.4 °F 87% 30.41 in 10.0 mi Calm Calm - N/A   Clear
9:35 PM 32.0 °F - 28.4 °F 87% 30.41 in 10.0 mi Calm Calm - N/A   Clear
9:55 PM 32.0 °F 28.7 °F 28.4 °F 87% 30.41 in 10.0 mi WNW 3.5 mph - N/A   Clear
10:15 PM 32.0 °F - 28.4 °F 87% 30.41 in 10.0 mi Calm Calm - N/A   Clear
10:35 PM 32.0 °F - 28.4 °F 87% 30.41 in 10.0 mi Calm Calm - N/A   Clear
10:55 PM 32.0 °F - 28.4 °F 87% 30.42 in 10.0 mi Calm Calm - N/A   Clear
11:15 PM 30.2 °F - 26.6 °F 86% 30.42 in 10.0 mi Calm Calm - N/A   Clear
11:35 PM 28.4 °F 24.6 °F 26.6 °F 93% 30.42 in 10.0 mi NNW 3.5 mph - N/A   Clear
11:55 PM 30.2 °F - 26.6 °F 86% 30.41 in 10.0 mi Calm Calm - N/A   Clear